Weather History for Thermal, CA

Change the Weather History Date:

Sunday, December 9, 2012

  Actual Average Record
Temperature  
Mean Temperature 60 °F 53 °F  
Max Temperature 80 °F 70 °F 88 °F (1957)
Min Temperature 39 °F 36 °F 17 °F (1994)
Degree Days  
Heating Degree Days 5 12  
Month to date heating degree days 15 100  
Since 1 July heating degree days 112 267  
Cooling Degree Days 0 0  
Month to date cooling degree days 6 0  
Year to date cooling degree days 4282 3686  
Growing Degree Days 9 (Base 50)    
Moisture  
Dew Point 36 °F    
Average Humidity 43    
Maximum Humidity 70    
Minimum Humidity 15    
Precipitation  
Precipitation 0.00 in 0.01 in 1.00 in (1982)
Month to date precipitation T 0.09  
Year to date precipitation 2.40 2.94  
Since 1 July precipitation 2.04 1.12  
Snow  
Snow 0.00 in - - ()
Month to date snowfall 0.0  
Year to date snowfall 0.0  
Since 1 July snowfall 0.0  
Snow Depth 0.00 in    
Sea Level Pressure  
Sea Level Pressure 30.00 in    
Wind  
Wind Speed 4 mph (WNW)    
Max Wind Speed 12 mph    
Max Gust Speed 14 mph    
Visibility 10 miles    
Events      
T = Trace of Precipitation, MM = Missing Value Source: NWS Daily Summary

Daily Weather History Graph

Daily Weather History Graph

Search for Another Location

Airport:

Trip Planner

Search our weather history database for the weather conditions in past years. The results will help you decide how hot, cold, wet, or windy it might be!

Date:

Astronomy

Dec. 09, 2012 Rise Set
Actual Time 6:37 AM PST 4:36 PM PST
Civil Twilight 6:10 AM PST 5:04 PM PST
Nautical Twilight 5:39 AM PST 5:35 PM PST
Astronomical Twilight 5:09 AM PST 6:05 PM PST
Moon 2:24 AM PST (12/9) 1:39 PM PST (12/9)
Length of Visible Light 10h 53m
Length of Day
9h 58m
Waning Crescent, 17% of the Moon is Illuminated
Dec 9
Waning Crescent
Dec 13
New
Dec 19
First Quarter
Dec 28
Full
Jan 4
Last Quarter

Hourly Weather History & Observations

Time (PST) Temp. Windchill Dew Point Humidity Pressure Visibility Wind Dir Wind Speed Gust Speed Precip Events Conditions
12:52 AM 48.0 °F - 30.9 °F 52% 29.91 in 10.0 mi Calm Calm - N/A   Clear
1:52 AM 42.1 °F - 32.0 °F 67% 29.91 in 10.0 mi Calm Calm - N/A   Clear
2:52 AM 44.1 °F 42.5 °F 32.0 °F 63% 29.91 in 10.0 mi NE 3.5 mph - N/A   Clear
3:52 AM 41.0 °F 39.0 °F 30.9 °F 67% 29.92 in 10.0 mi NNW 3.5 mph - N/A   Clear
4:52 AM 42.1 °F 39.2 °F 32.0 °F 67% 29.92 in 10.0 mi North 4.6 mph - N/A   Clear
5:52 AM 39.9 °F 35.8 °F 30.9 °F 70% 29.94 in 10.0 mi WNW 5.8 mph - N/A   Clear
6:52 AM 44.1 °F 40.8 °F 32.0 °F 63% 29.96 in 10.0 mi North 5.8 mph - N/A   Clear
7:52 AM 53.1 °F - 34.0 °F 48% 29.97 in 10.0 mi WNW 4.6 mph - N/A   Clear
8:52 AM 60.1 °F - 37.9 °F 44% 29.98 in 10.0 mi Calm Calm - N/A   Clear
9:52 AM 68.0 °F - 37.9 °F 33% 30.01 in 10.0 mi West 3.5 mph - N/A   Clear
10:52 AM 73.9 °F - 30.0 °F 20% 29.99 in 10.0 mi Calm Calm - N/A   Clear
11:52 AM 78.1 °F - 27.0 °F 15% 29.96 in 10.0 mi NNE 4.6 mph - N/A   Clear
12:52 PM 79.0 °F - 33.1 °F 19% 29.95 in 10.0 mi SSE 8.1 mph - N/A   Clear
1:52 PM 75.9 °F - 44.1 °F 32% 29.95 in 10.0 mi South 9.2 mph - N/A   Clear
2:52 PM 73.9 °F - 41.0 °F 30% 29.96 in 10.0 mi SE 8.1 mph - N/A   Clear
3:52 PM 70.0 °F - 45.0 °F 41% 29.98 in 10.0 mi SE 4.6 mph - N/A   Clear
4:52 PM 62.1 °F - 48.0 °F 60% 30.01 in 10.0 mi Calm Calm - N/A   Clear
5:52 PM 63.0 °F - 48.9 °F 60% 30.04 in 10.0 mi Variable 4.6 mph - N/A   Clear
6:52 PM 61.0 °F - 44.1 °F 54% 30.06 in 10.0 mi West 3.5 mph - N/A   Clear
7:52 PM 57.9 °F - 41.0 °F 53% 30.09 in 10.0 mi NE 3.5 mph - N/A   Clear
8:52 PM 54.0 °F - 36.0 °F 51% 30.12 in 10.0 mi West 3.5 mph - N/A   Clear
9:52 PM 51.1 °F - 34.0 °F 52% 30.14 in 10.0 mi West 5.8 mph - N/A   Clear
10:52 PM 46.0 °F 44.8 °F 32.0 °F 58% 30.16 in 10.0 mi SSE 3.5 mph - N/A   Clear
11:52 PM 45.0 °F 43.5 °F 30.9 °F 58% 30.16 in 10.0 mi Variable 3.5 mph - N/A   Clear